Time,TemperatureF,DewpointF,PressureIn,WindDirection,WindDirectionDegrees,WindSpeedMPH,WindSpeedGustMPH,Humidity,HourlyPrecipIn,Conditions,Clouds,dailyrainin,SoftwareType,DateUTC
2013-03-06 00:01:00,54.0,28.0,29.92,SW,217,26.0,36.0,37,0.00,,,0.00,,2013-03-06 08:01:00,
2013-03-06 00:11:00,54.0,28.0,29.92,SW,217,26.0,36.0,37,0.00,,,0.00,,2013-03-06 08:11:00,
2013-03-06 00:21:00,53.0,29.0,29.91,South,183,34.0,42.0,40,0.00,,,0.00,,2013-03-06 08:21:00,
2013-03-06 00:31:00,53.0,27.0,29.91,South,182,29.0,41.0,37,0.00,,,0.00,,2013-03-06 08:31:00,
2013-03-06 00:42:00,53.0,27.0,29.91,South,182,29.0,41.0,37,0.00,,,0.00,,2013-03-06 08:42:00,
2013-03-06 00:52:00,49.0,33.0,29.91,South,185,32.0,43.0,53,0.00,,,0.00,,2013-03-06 08:52:00,
2013-03-06 01:01:00,49.0,34.0,29.91,SSE,168,32.0,40.0,55,0.00,,,0.00,,2013-03-06 09:01:00,
2013-03-06 01:12:00,49.0,34.0,29.91,SSE,168,32.0,40.0,55,0.00,,,0.00,,2013-03-06 09:12:00,
2013-03-06 01:21:00,48.0,35.0,29.92,South,180,33.0,42.0,61,0.00,,,0.00,,2013-03-06 09:21:00,
2013-03-06 01:31:00,48.0,34.0,29.92,SSW,205,24.0,40.0,59,0.00,,,0.00,,2013-03-06 09:31:00,
2013-03-06 01:41:00,48.0,34.0,29.92,SSW,205,24.0,40.0,59,0.00,,,0.00,,2013-03-06 09:41:00,
2013-03-06 01:52:00,47.0,34.0,29.91,SSW,196,37.0,46.0,61,0.00,,,0.00,,2013-03-06 09:52:00,
2013-03-06 02:01:00,47.0,34.0,29.90,SSW,192,33.0,45.0,61,0.00,,,0.00,,2013-03-06 10:01:00,
2013-03-06 02:11:00,47.0,34.0,29.90,SSW,192,33.0,45.0,61,0.00,,,0.00,,2013-03-06 10:11:00,
2013-03-06 02:21:00,46.0,34.0,29.90,South,188,36.0,45.0,63,0.00,,,0.00,,2013-03-06 10:21:00,
2013-03-06 02:31:00,46.0,35.0,29.90,South,187,31.0,44.0,64,0.00,,,0.00,,2013-03-06 10:31:00,
2013-03-06 02:41:00,46.0,35.0,29.90,South,187,31.0,44.0,64,0.00,,,0.00,,2013-03-06 10:41:00,
2013-03-06 02:52:00,46.0,35.0,29.91,South,186,35.0,45.0,65,0.00,,,0.00,,2013-03-06 10:52:00,
2013-03-06 03:01:00,46.0,35.0,29.91,South,188,29.0,41.0,65,0.00,,,0.00,,2013-03-06 11:01:00,
2013-03-06 03:11:00,46.0,35.0,29.91,South,188,29.0,41.0,65,0.00,,,0.00,,2013-03-06 11:11:00,
2013-03-06 03:22:00,46.0,35.0,29.90,South,190,29.0,39.0,64,0.00,,,0.00,,2013-03-06 11:22:00,
2013-03-06 03:31:00,46.0,35.0,29.91,South,187,27.0,39.0,64,0.00,,,0.00,,2013-03-06 11:31:00,
2013-03-06 03:42:00,46.0,35.0,29.91,South,187,27.0,39.0,64,0.00,,,0.00,,2013-03-06 11:42:00,
2013-03-06 03:52:00,46.0,33.0,29.91,South,184,24.0,33.0,60,0.00,,,0.00,,2013-03-06 11:52:00,
2013-03-06 04:01:00,46.0,32.0,29.91,SSW,192,27.0,33.0,57,0.00,,,0.00,,2013-03-06 12:01:00,
2013-03-06 04:11:00,46.0,32.0,29.91,SSW,192,27.0,33.0,57,0.00,,,0.00,,2013-03-06 12:11:00,
2013-03-06 04:21:00,48.0,31.0,29.91,SSW,198,22.0,32.0,51,0.00,,,0.00,,2013-03-06 12:21:00,
2013-03-06 04:32:00,48.0,30.0,29.91,SSW,204,19.0,31.0,49,0.00,,,0.00,,2013-03-06 12:32:00,
2013-03-06 04:42:00,48.0,30.0,29.91,SSW,204,19.0,31.0,49,0.00,,,0.00,,2013-03-06 12:42:00,
2013-03-06 04:52:00,48.0,30.0,29.93,SSW,199,15.0,21.0,50,0.00,,,0.00,,2013-03-06 12:52:00,
2013-03-06 05:01:00,47.0,30.0,29.93,SSW,205,17.0,23.0,52,0.00,,,0.00,,2013-03-06 13:01:00,
2013-03-06 05:11:00,47.0,30.0,29.93,SSW,205,17.0,23.0,52,0.00,,,0.00,,2013-03-06 13:11:00,
2013-03-06 05:21:00,47.0,30.0,29.93,SSW,203,17.0,23.0,51,0.00,,,0.00,,2013-03-06 13:21:00,
2013-03-06 05:31:00,48.0,29.0,29.93,SSW,206,17.0,24.0,47,0.00,,,0.00,,2013-03-06 13:31:00,
2013-03-06 05:42:00,48.0,29.0,29.93,SSW,206,17.0,24.0,47,0.00,,,0.00,,2013-03-06 13:42:00,
2013-03-06 05:52:00,48.0,29.0,29.94,SSW,210,18.0,28.0,47,0.00,,,0.00,,2013-03-06 13:52:00,
2013-03-06 06:01:00,48.0,29.0,29.95,SW,217,17.0,27.0,47,0.00,,,0.00,,2013-03-06 14:01:00,
2013-03-06 06:11:00,48.0,29.0,29.95,SW,217,17.0,27.0,47,0.00,,,0.00,,2013-03-06 14:11:00,
2013-03-06 06:21:00,49.0,28.0,29.94,SSW,203,14.0,28.0,44,0.00,,,0.00,,2013-03-06 14:21:00,
2013-03-06 06:31:00,49.0,29.0,29.94,SSW,198,16.0,22.0,46,0.00,,,0.00,,2013-03-06 14:31:00,
2013-03-06 06:41:00,49.0,29.0,29.94,SSW,198,16.0,22.0,46,0.00,,,0.00,,2013-03-06 14:41:00,
2013-03-06 06:52:00,47.0,30.0,29.94,SW,219,18.0,26.0,51,0.00,,,0.00,,2013-03-06 14:52:00,
2013-03-06 07:01:00,46.0,30.0,29.95,SW,221,16.0,28.0,53,0.00,,,0.00,,2013-03-06 15:01:00,
2013-03-06 07:11:00,46.0,30.0,29.95,SW,221,16.0,28.0,53,0.00,,,0.00,,2013-03-06 15:11:00,
2013-03-06 07:21:00,47.0,29.0,29.94,SW,217,17.0,28.0,50,0.00,,,0.00,,2013-03-06 15:21:00,
2013-03-06 07:32:00,49.0,30.0,29.94,SSW,213,17.0,27.0,48,0.00,,,0.00,,2013-03-06 15:32:00,
2013-03-06 07:41:00,49.0,30.0,29.94,SSW,213,17.0,27.0,48,0.00,,,0.00,,2013-03-06 15:41:00,
2013-03-06 07:52:00,51.0,31.0,29.95,SW,217,21.0,27.0,47,0.00,,,0.00,,2013-03-06 15:52:00,
2013-03-06 08:01:00,51.0,31.0,29.95,SW,215,19.0,28.0,46,0.00,,,0.00,,2013-03-06 16:01:00,
2013-03-06 08:11:00,51.0,31.0,29.95,SW,215,19.0,28.0,46,0.00,,,0.00,,2013-03-06 16:11:00,
2013-03-06 08:21:00,52.0,32.0,29.95,SSW,193,19.0,31.0,47,0.00,,,0.00,,2013-03-06 16:21:00,
2013-03-06 08:32:00,52.0,32.0,29.95,SSW,205,24.0,30.0,46,0.00,,,0.00,,2013-03-06 16:32:00,
2013-03-06 08:41:00,52.0,32.0,29.95,SSW,205,24.0,30.0,46,0.00,,,0.00,,2013-03-06 16:41:00,
2013-03-06 08:52:00,55.0,33.0,29.96,SW,223,18.0,30.0,44,0.00,,,0.00,,2013-03-06 16:52:00,
2013-03-06 09:01:00,56.0,34.0,29.96,SW,214,22.0,31.0,43,0.00,,,0.00,,2013-03-06 17:01:00,
2013-03-06 09:11:00,56.0,34.0,29.96,SW,214,22.0,31.0,43,0.00,,,0.00,,2013-03-06 17:11:00,
2013-03-06 09:21:00,58.0,34.0,29.97,WSW,251,20.0,29.0,41,0.00,,,0.00,,2013-03-06 17:21:00,
2013-03-06 09:31:00,58.0,34.0,29.97,SW,232,17.0,28.0,41,0.00,,,0.00,,2013-03-06 17:31:00,
2013-03-06 09:41:00,58.0,34.0,29.97,SW,232,17.0,28.0,41,0.00,,,0.00,,2013-03-06 17:41:00,
2013-03-06 09:52:00,59.0,34.0,29.97,WSW,246,21.0,33.0,39,0.00,,,0.00,,2013-03-06 17:52:00,
2013-03-06 10:01:00,60.0,34.0,29.96,WSW,238,22.0,30.0,38,0.00,,,0.00,,2013-03-06 18:01:00,
2013-03-06 10:28:00,62.0,35.0,29.96,WSW,240,18.0,25.0,37,0.00,,,0.00,,2013-03-06 18:28:00,
2013-03-06 10:41:00,62.0,35.0,29.96,West,263,19.0,30.0,36,0.00,,,0.00,,2013-03-06 18:41:00,
2013-03-06 10:52:00,62.0,35.0,29.95,SW,235,25.0,32.0,36,0.00,,,0.00,,2013-03-06 18:52:00,
2013-03-06 11:01:00,62.0,33.0,29.95,SW,226,18.0,35.0,34,0.00,,,0.00,,2013-03-06 19:01:00,
2013-03-06 11:11:00,62.0,33.0,29.95,SW,226,18.0,35.0,34,0.00,,,0.00,,2013-03-06 19:11:00,
2013-03-06 11:21:00,63.0,34.0,29.95,WSW,248,20.0,32.0,34,0.00,,,0.00,,2013-03-06 19:21:00,
2013-03-06 11:31:00,64.0,34.0,29.95,SW,232,21.0,34.0,32,0.00,,,0.00,,2013-03-06 19:31:00,
2013-03-06 11:42:00,64.0,34.0,29.95,SW,232,21.0,34.0,32,0.00,,,0.00,,2013-03-06 19:42:00,
2013-03-06 11:52:00,64.0,33.0,29.94,West,265,19.0,33.0,31,0.00,,,0.00,,2013-03-06 19:52:00,
2013-03-06 12:01:00,64.0,32.0,29.94,SW,233,24.0,33.0,30,0.00,,,0.00,,2013-03-06 20:01:00,
2013-03-06 12:11:00,64.0,32.0,29.94,SW,233,24.0,33.0,30,0.00,,,0.00,,2013-03-06 20:11:00,
2013-03-06 12:21:00,64.0,32.0,29.93,West,259,22.0,34.0,30,0.00,,,0.00,,2013-03-06 20:21:00,
2013-03-06 12:31:00,65.0,33.0,29.93,SSW,212,17.0,33.0,30,0.00,,,0.00,,2013-03-06 20:31:00,
2013-03-06 12:41:00,65.0,33.0,29.93,SSW,212,17.0,33.0,30,0.00,,,0.00,,2013-03-06 20:41:00,
2013-03-06 12:52:00,66.0,32.0,29.92,WSW,252,18.0,30.0,28,0.00,,,0.00,,2013-03-06 20:52:00,
2013-03-06 13:01:00,66.0,32.0,29.92,West,263,20.0,33.0,28,0.00,,,0.00,,2013-03-06 21:01:00,
2013-03-06 13:11:00,66.0,32.0,29.92,West,263,20.0,33.0,28,0.00,,,0.00,,2013-03-06 21:11:00,
2013-03-06 13:21:00,66.0,32.0,29.92,WSW,257,20.0,30.0,28,0.00,,,0.00,,2013-03-06 21:21:00,
2013-03-06 13:31:00,66.0,31.0,29.92,West,259,20.0,28.0,27,0.00,,,0.00,,2013-03-06 21:31:00,
2013-03-06 13:41:00,66.0,31.0,29.92,West,259,20.0,28.0,27,0.00,,,0.00,,2013-03-06 21:41:00,
2013-03-06 13:52:00,65.0,32.0,29.92,WSW,258,17.0,28.0,29,0.00,,,0.00,,2013-03-06 21:52:00,
2013-03-06 14:01:00,64.0,32.0,29.92,West,262,22.0,35.0,30,0.00,,,0.00,,2013-03-06 22:01:00,
2013-03-06 14:11:00,64.0,32.0,29.92,West,262,22.0,35.0,30,0.00,,,0.00,,2013-03-06 22:11:00,
2013-03-06 14:21:00,65.0,32.0,29.90,West,271,15.0,33.0,29,0.00,,,0.00,,2013-03-06 22:21:00,
2013-03-06 14:31:00,66.0,33.0,29.90,SW,223,29.0,39.0,29,0.00,,,0.00,,2013-03-06 22:31:00,
2013-03-06 14:41:00,66.0,33.0,29.90,SW,223,29.0,39.0,29,0.00,,,0.00,,2013-03-06 22:41:00,
2013-03-06 14:52:00,64.0,32.0,29.90,WSW,256,20.0,34.0,30,0.00,,,0.00,,2013-03-06 22:52:00,
2013-03-06 15:01:00,64.0,34.0,29.90,WSW,247,21.0,38.0,32,0.00,,,0.00,,2013-03-06 23:01:00,
2013-03-06 15:11:00,64.0,34.0,29.90,WSW,247,21.0,38.0,32,0.00,,,0.00,,2013-03-06 23:11:00,
2013-03-06 15:21:00,63.0,33.0,29.91,WSW,252,24.0,32.0,32,0.00,,,0.00,,2013-03-06 23:21:00,
2013-03-06 15:31:00,62.0,33.0,29.91,WSW,254,18.0,32.0,33,0.00,,,0.00,,2013-03-06 23:31:00,
2013-03-06 15:41:00,62.0,33.0,29.91,WSW,254,18.0,32.0,33,0.00,,,0.00,,2013-03-06 23:41:00,
2013-03-06 15:52:00,62.0,32.0,29.91,SW,232,15.0,31.0,32,0.00,,,0.00,,2013-03-06 23:52:00,
2013-03-06 16:01:00,61.0,32.0,29.91,SW,234,20.0,28.0,33,0.00,,,0.00,,2013-03-07 00:01:00,
2013-03-06 16:11:00,61.0,32.0,29.91,SW,234,20.0,28.0,33,0.00,,,0.00,,2013-03-07 00:11:00,
2013-03-06 16:21:00,61.0,31.0,29.89,SW,236,21.0,31.0,32,0.00,,,0.00,,2013-03-07 00:21:00,
2013-03-06 16:31:00,60.0,30.0,29.89,West,261,19.0,33.0,32,0.00,,,0.00,,2013-03-07 00:31:00,
2013-03-06 16:41:00,60.0,30.0,29.89,West,261,19.0,33.0,32,0.00,,,0.00,,2013-03-07 00:41:00,
2013-03-06 16:52:00,59.0,30.0,29.90,West,259,15.0,28.0,33,0.00,,,0.00,,2013-03-07 00:52:00,
2013-03-06 17:01:00,59.0,31.0,29.89,WSW,248,16.0,28.0,34,0.00,,,0.00,,2013-03-07 01:01:00,
2013-03-06 17:11:00,59.0,31.0,29.89,WSW,248,16.0,28.0,34,0.00,,,0.00,,2013-03-07 01:11:00,
2013-03-06 17:21:00,58.0,31.0,29.90,SW,236,15.0,27.0,35,0.00,,,0.00,,2013-03-07 01:21:00,
2013-03-06 17:31:00,57.0,29.0,29.91,WSW,245,11.0,28.0,34,0.00,,,0.00,,2013-03-07 01:31:00,
2013-03-06 17:41:00,57.0,29.0,29.91,WSW,245,11.0,28.0,34,0.00,,,0.00,,2013-03-07 01:41:00,
2013-03-06 17:52:00,56.0,29.0,29.90,WSW,238,14.0,23.0,36,0.00,,,0.00,,2013-03-07 01:52:00,
2013-03-06 18:01:00,56.0,30.0,29.89,SW,232,17.0,27.0,37,0.00,,,0.00,,2013-03-07 02:01:00,
2013-03-06 18:11:00,56.0,30.0,29.89,SW,232,17.0,27.0,37,0.00,,,0.00,,2013-03-07 02:11:00,
2013-03-06 18:21:00,55.0,31.0,29.90,SW,218,12.0,25.0,39,0.00,,,0.00,,2013-03-07 02:21:00,
2013-03-06 18:31:00,55.0,31.0,29.91,SW,226,18.0,33.0,39,0.00,,,0.00,,2013-03-07 02:31:00,
2013-03-06 18:41:00,55.0,31.0,29.91,SW,226,18.0,33.0,39,0.00,,,0.00,,2013-03-07 02:41:00,
2013-03-06 18:52:00,55.0,31.0,29.91,SW,226,18.0,33.0,39,0.00,,,0.00,,2013-03-07 02:52:00,
2013-03-06 19:01:00,54.0,31.0,29.90,SW,218,20.0,34.0,41,0.00,,,0.00,,2013-03-07 03:01:00,
2013-03-06 19:11:00,54.0,31.0,29.89,SW,221,18.0,32.0,41,0.00,,,0.00,,2013-03-07 03:11:00,
2013-03-06 19:21:00,54.0,31.0,29.89,SW,221,18.0,32.0,41,0.00,,,0.00,,2013-03-07 03:21:00,
2013-03-06 19:31:00,53.0,30.0,29.88,SW,219,25.0,37.0,41,0.00,,,0.00,,2013-03-07 03:31:00,
2013-03-06 19:41:00,53.0,30.0,29.88,SW,219,25.0,37.0,41,0.00,,,0.00,,2013-03-07 03:41:00,
2013-03-06 19:52:00,53.0,30.0,29.88,SW,223,22.0,32.0,41,0.00,,,0.00,,2013-03-07 03:52:00,
2013-03-06 20:01:00,53.0,29.0,29.88,SSW,195,22.0,33.0,40,0.00,,,0.00,,2013-03-07 04:01:00,
2013-03-06 20:11:00,53.0,29.0,29.88,SSW,195,22.0,33.0,40,0.00,,,0.00,,2013-03-07 04:11:00,
2013-03-06 20:21:00,53.0,31.0,29.88,SW,220,25.0,33.0,42,0.00,,,0.00,,2013-03-07 04:21:00,
2013-03-06 20:31:00,53.0,31.0,29.88,South,170,18.0,30.0,42,0.00,,,0.00,,2013-03-07 04:31:00,
2013-03-06 20:41:00,53.0,31.0,29.88,South,170,18.0,30.0,42,0.00,,,0.00,,2013-03-07 04:41:00,
2013-03-06 20:52:00,52.0,30.0,29.88,SW,215,15.0,29.0,42,0.00,,,0.00,,2013-03-07 04:52:00,
2013-03-06 21:01:00,52.0,30.0,29.88,SSW,213,19.0,27.0,42,0.00,,,0.00,,2013-03-07 05:01:00,
2013-03-06 21:12:00,52.0,30.0,29.88,SSW,213,19.0,27.0,42,0.00,,,0.00,,2013-03-07 05:12:00,
2013-03-06 21:22:00,52.0,30.0,29.88,SW,217,15.0,28.0,42,0.00,,,0.00,,2013-03-07 05:22:00,
2013-03-06 21:31:00,52.0,30.0,29.87,SSW,213,22.0,29.0,42,0.00,,,0.00,,2013-03-07 05:31:00,
2013-03-06 21:41:00,52.0,30.0,29.87,SSW,213,22.0,29.0,42,0.00,,,0.00,,2013-03-07 05:41:00,
2013-03-06 21:52:00,52.0,30.0,29.88,SW,219,22.0,31.0,42,0.00,,,0.00,,2013-03-07 05:52:00,
2013-03-06 22:01:00,52.0,30.0,29.88,SSW,196,21.0,30.0,42,0.00,,,0.00,,2013-03-07 06:01:00,
2013-03-06 22:11:00,52.0,30.0,29.88,SSW,196,21.0,30.0,42,0.00,,,0.00,,2013-03-07 06:11:00,
2013-03-06 22:21:00,51.0,29.0,29.88,SSW,213,18.0,27.0,42,0.00,,,0.00,,2013-03-07 06:21:00,
2013-03-06 22:31:00,51.0,29.0,29.88,SSW,198,17.0,23.0,43,0.00,,,0.00,,2013-03-07 06:31:00,
2013-03-06 22:41:00,49.0,33.0,29.88,South,176,27.0,34.0,54,0.00,,,0.00,,2013-03-07 06:41:00,
2013-03-06 22:52:00,49.0,33.0,29.88,South,176,27.0,34.0,54,0.00,,,0.00,,2013-03-07 06:52:00,
2013-03-06 23:01:00,49.0,33.0,29.88,South,173,28.0,35.0,54,0.00,,,0.00,,2013-03-07 07:01:00,
2013-03-06 23:11:00,49.0,33.0,29.88,South,173,28.0,35.0,54,0.00,,,0.00,,2013-03-07 07:11:00,
2013-03-06 23:21:00,47.0,34.0,29.89,South,180,21.0,33.0,60,0.00,,,0.00,,2013-03-07 07:21:00,
2013-03-06 23:31:00,48.0,35.0,29.89,South,187,26.0,33.0,60,0.00,,,0.00,,2013-03-07 07:31:00,
2013-03-06 23:41:00,48.0,35.0,29.89,South,187,26.0,33.0,60,0.00,,,0.00,,2013-03-07 07:41:00,
2013-03-06 23:52:00,48.0,34.0,29.89,South,180,21.0,33.0,59,0.00,,,0.00,,2013-03-07 07:52:00,